Regional Weather Roundup
Issued by NWS Portland, ME

Current Version | Previous Version | Text Only | Print | Product List | Glossary Off
Versions: 1 2 3 4 5 6 7 8 9 10 11 12 13 14 15 16 17 18 19 20 21 22 23 24 25 26 27 28 29 30 31 32 33 34 35 36 37 38 39 40 41 42 43 44 45 46 47 48 49 50
000 ASUS41 KGYX 222310 RWRGYX WEATHER ROUNDUP FOR MAINE AND NEW HAMPSHIRE NATIONAL WEATHER SERVICE GRAY ME 700 PM EDT SUN OCT 22 2017 MEZ002-005-006-010-012-015-018-020-021-024-026-027-029-230000- MAINE CITY SKY/WX TMP DP RH WIND PRES REMARKS PORTLAND MOCLDY 54 48 80 E10 30.44S SANFORD CLOUDY 54 52 93 E5 30.44R BAR HARBOR CLEAR 51 46 83 E3 30.47S WISCASSET CLEAR 51 45 79 E3 30.45S ROCKLAND CLEAR 52 47 83 E7 30.45S FRYEBURG NOT AVBL LEWISTONAUBURN PTCLDY 54 48 80 SE5 30.44R AUGUSTA CLEAR 54 44 69 SE8 30.44R WATERVILLE CLEAR 53 45 74 CALM 30.41R BANGOR PTCLDY 53 36 52 SE8 30.45S GREENVILLE N/A 48 37 65 SE7 30.39S MILLINOCKET CLEAR 49 39 68 CALM 30.44S HOULTON CLEAR 47 33 58 SE3 30.43S PRESQUE ISLE CLOUDY 49 32 52 CALM 30.43F FRENCHVILLE PTCLDY 46 24 42 E5 30.41S CARIBOU CLOUDY 49 29 46 SE5 30.41F $$ NHZ002-005-008-009-011-012-014-230000- NEW HAMPSHIRE CITY SKY/WX TMP DP RH WIND PRES REMARKS PORTSMOUTH CLOUDY 55 54 95 E7 30.40S FOG ROCHESTER CLOUDY 54 50 86 NE8 30.42R NASHUA CLOUDY 58 54 86 SE5 30.40R MANCHESTER CLOUDY 58 54 86 E6 30.39R CONCORD CLOUDY 58 52 80 CALM 30.40R LACONIA CLOUDY 59 52 77 NE8 30.40R PLYMOUTH FAIR 55 51 87 CALM 30.39R BERLIN CLEAR 55 47 74 CALM 30.38R WHITEFIELD CLEAR 57 48 72 NW3 30.35R JAFFREY CLOUDY 63 55 75 CALM 30.39R KEENE CLOUDY 54 41 61 CALM 30.36R LEBANON CLOUDY 59 50 72 SE3 30.34R MT WASHINGTON MOCLDY 48 23 37 SW25 N/A $$ VTZ005-007-008-230000- VERMONT CITY SKY/WX TMP DP RH WIND PRES REMARKS ST JOHNSBURY N/A 65 48 54 MISG 30.32R BURLINGTON MOCLDY 68 41 37 S8 30.27R $$ MAZ007-012-024-CTZ003-RIZ002-NYZ038-NYZ072-230000- SOUTHERN NEW ENGLAND AND NY CITY SKY/WX TMP DP RH WIND PRES REMARKS BOSTON MOCLDY 57 55 93 E7 30.40S WORCESTER CLOUDY 63 49 60 E5 30.39S NANTUCKET PTCLDY 56 56 100 S6 30.41R PROVIDENCE CLOUDY 62 55 77 SE5 30.38R HARTFORD CLOUDY 66 45 46 S8 30.35S ALBANY CLOUDY 67 44 43 S7 30.30S NEW YORK CITY MOCLDY 67 53 61 S7 30.35S $$ ANZ081-ANZ082-ANZ150-NHZ014-MEZ023>029-230000- COASTAL MARINE OBSERVATIONS STATION/POSITION TIME TEMP WIND PRES WAVE AIR SEA DIR/SP/G HT/PER (UTC) (F) (DEG/KT/KT) (MB) (FT/S) MOUNT DESERT ROC 2300 54 80/ 14/ 15 1031.3F MATINICUS ROCK 2200 54 80/ 17/ 19 1030.2F ISLE OF SHOALS 2200 56 50/ 12/ 14 1029.3F JEFFREYS LEDGE 2236 58 N/A 2/ 9 GEORGES BANK BUO 2150 60 61 1030.1 2/ 8 $$ .............KEY.............. WCI - WIND CHILL TC - TEMPERATURE IN CELSIUS VSB - VISIBILITY IN MILES HX - HEAT INDEX FAIR- INDICATES FEW OR NO CLOUDS BELOW 12,000 FT, WITH NO SIGNIFICANT WEATHER AND/OR OBSTRUCTIONS TO VISIBILITY.

USA.gov is the U.S. government's official web portal to all federal, state and local government web resources and services.